PBO Station Position Time Series. Reference Frame : NAM14
Format Version,1.1.1
4-character ID,VCST
Station name,VentucopaStSCIGN
Begin Date, 2000-11-09
End Date, 2023-06-26
Release Date, 2023-06-27
Reference position, 34.8515031435 North Latitude, -119.4838601099 East Longitude, 809.56920 meters elevation,
Date, North (mm), East (mm), Vertical (mm), North Std. Deviation (mm), East Std. Deviation (mm),              Vertical Std. Deviation (mm), Quality,
2000-11-09,0.00, 0.00, 0.00, 2.27, 1.89, 8.82, repro,
2000-11-10,-0.62, -0.43, -9.03, 2.38, 1.92, 9.44, repro,
2000-11-11,-1.55, -0.10, -1.29, 2.15, 1.84, 8.57, repro,
2000-11-12,-0.51, -0.47, 2.15, 2.04, 1.76, 8.03, repro,
2000-11-13,-0.19, 0.13, -3.58, 2.14, 1.92, 8.45, repro,
2000-11-14,-1.58, -2.08, -2.22, 2.17, 1.95, 8.35, repro,
2000-11-15,-4.09, 0.83, -1.32, 2.19, 1.82, 8.42, repro,
2000-11-16,-0.27, 0.86, -0.75, 2.23, 1.87, 8.49, repro,
2000-11-17,-2.33, 0.61, -4.73, 2.07, 1.82, 8.13, repro,
2000-11-19,-0.49, -2.75, 6.20, 3.37, 3.43, 13.78, repro,
2000-12-18,-1.27, -3.54, -10.94, 4.39, 4.18, 18.42, repro,
2000-12-19,-1.45, 0.41, -19.16, 4.48, 4.06, 18.30, repro,
2000-12-20,-2.82, -0.50, -12.62, 4.03, 3.78, 17.11, repro,
2000-12-21,-3.59, -3.50, -16.75, 4.47, 4.14, 18.72, repro,
2000-12-22,-3.28, -0.95, -11.97, 4.44, 4.06, 18.21, repro,
2000-12-23,-5.22, -3.73, -12.13, 4.20, 3.83, 16.86, repro,
2000-12-24,-2.03, -2.42, -17.65, 4.00, 4.24, 16.97, repro,
2000-12-25,-1.75, -1.29, -14.87, 3.99, 3.80, 16.56, repro,
2000-12-26,-3.81, -3.20, -17.91, 3.98, 3.87, 16.86, repro,
2000-12-27,-2.79, -1.22, -16.87, 4.04, 3.79, 16.74, repro,
2000-12-28,-1.69, -1.56, -2.09, 4.11, 3.81, 16.79, repro,
2000-12-29,-3.77, -3.13, -2.19, 3.96, 3.72, 16.01, repro,
2000-12-30,-5.16, -0.62, -6.43, 4.02, 3.78, 15.69, repro,
2000-12-31,-4.96, -2.97, -3.12, 4.02, 4.04, 16.99, repro,
2001-01-01,-5.64, -4.58, 3.03, 3.92, 3.78, 15.87, repro,
2001-01-02,-4.35, -3.51, 0.21, 3.97, 3.87, 16.48, repro,
2001-01-03,1.20, -2.40, -10.50, 4.01, 3.75, 15.96, repro,
2001-01-04,-0.17, -2.33, -6.32, 3.97, 3.71, 15.63, repro,
2001-01-05,-1.01, -2.53, -5.75, 4.20, 3.92, 16.27, repro,
2001-01-06,-3.13, -2.57, -5.97, 4.29, 4.03, 16.88, repro,
2001-01-07,-1.95, -1.86, -0.42, 4.02, 3.94, 16.58, repro,
2001-01-08,-0.70, -4.22, 28.12, 4.00, 3.89, 16.22, repro,
2001-01-09,-3.55, -2.38, 3.63, 3.91, 3.83, 15.63, repro,
2001-01-10,-2.74, -2.36, -5.15, 4.02, 4.00, 16.67, repro,
2001-01-11,-6.87, -6.85, -9.35, 4.01, 4.08, 16.75, repro,
2001-01-12,-8.10, -1.55, 3.02, 3.89, 3.79, 15.39, repro,
2001-01-13,-0.57, -1.60, 1.90, 3.92, 3.98, 15.99, repro,
2001-01-14,-1.10, -4.11, -6.40, 3.92, 3.87, 15.70, repro,
2001-01-15,-1.87, 0.09, -7.59, 3.87, 3.82, 15.42, repro,
2001-01-16,-1.75, -1.69, -13.27, 3.96, 4.12, 16.33, repro,
2001-01-17,-1.73, -2.84, -12.19, 3.99, 4.07, 16.31, repro,
2001-01-18,-3.81, -2.85, -11.19, 4.11, 4.13, 16.69, repro,
2001-01-19,-3.29, -4.25, -12.37, 3.83, 3.82, 15.38, repro,
2001-01-20,-1.43, -0.83, -17.43, 3.86, 4.04, 15.93, repro,
2001-01-21,-4.50, -2.03, -18.12, 3.96, 4.15, 16.63, repro,
2001-01-22,-2.12, -3.28, -0.61, 4.12, 4.14, 16.69, repro,
2001-01-23,-4.53, -2.13, -3.79, 4.08, 4.32, 17.34, repro,
2001-01-24,-1.43, -6.81, -2.10, 4.08, 4.45, 17.59, repro,
2001-01-25,-10.99, -3.17, -3.97, 3.94, 3.92, 15.75, repro,
2001-01-26,1.32, -0.54, -12.65, 4.03, 4.22, 17.06, repro,
2001-01-27,-5.41, -5.67, -6.22, 4.13, 4.36, 17.19, repro,
2001-01-28,-3.69, -5.10, -9.24, 4.06, 4.31, 17.17, repro,
2001-01-29,-1.70, -0.66, -15.50, 3.87, 3.83, 15.52, repro,
2001-01-30,-3.00, -0.21, -21.18, 3.95, 4.22, 17.08, repro,
2001-01-31,-3.24, -0.54, -9.42, 4.08, 3.91, 16.86, repro,
2001-02-01,-3.82, -2.65, -7.80, 3.92, 3.82, 16.18, repro,
2001-02-02,-1.60, -1.83, -14.75, 3.90, 3.81, 16.33, repro,
2001-02-03,-1.18, -2.23, -18.76, 3.98, 4.14, 17.38, repro,
2001-02-04,-4.23, -1.71, -4.61, 4.05, 4.18, 17.73, repro,
2001-02-05,-1.51, -0.15, -22.23, 3.83, 3.69, 16.26, repro,
2001-02-06,0.66, -3.04, -26.67, 3.97, 3.72, 16.90, repro,
2001-02-07,0.82, -4.36, -24.16, 3.90, 3.74, 16.70, repro,
2001-02-08,-2.48, -2.11, -11.47, 3.80, 3.70, 16.23, repro,
2001-02-09,-2.60, -2.02, -15.40, 3.96, 4.01, 17.35, repro,
2001-02-10,-0.68, -1.51, 8.47, 3.89, 3.70, 16.61, repro,
2001-02-11,-4.00, -1.92, -2.47, 4.27, 4.45, 18.03, repro,
2001-02-12,-2.80, 0.47, -1.14, 4.28, 4.53, 18.30, repro,
2001-02-13,-0.51, 0.11, -3.03, 3.85, 3.97, 17.13, repro,
2001-02-14,1.46, 0.31, -12.25, 3.73, 3.65, 16.08, repro,
2001-02-15,-2.22, 0.73, -18.82, 3.92, 4.09, 17.88, repro,
2001-02-16,-0.37, -3.49, -20.89, 3.73, 3.55, 15.96, repro,
2001-02-17,-2.00, -1.05, -21.90, 3.81, 3.60, 16.44, repro,
2001-02-18,0.08, -2.17, -8.01, 4.01, 4.24, 15.97, repro,
2001-02-19,-0.83, -1.54, -19.59, 3.75, 3.86, 16.13, repro,
2001-02-20,2.90, -6.94, -30.61, 3.72, 3.64, 15.68, repro,
2001-02-21,-1.98, -0.54, -9.01, 4.29, 4.71, 17.50, repro,
2001-02-22,-1.05, 0.34, -9.93, 3.73, 3.63, 15.78, repro,
2001-02-23,-2.56, -2.22, -0.13, 4.11, 4.37, 16.03, repro,
2001-02-24,-0.68, -4.42, -0.72, 4.26, 4.58, 16.50, repro,
2001-02-25,-5.18, -1.82, 9.34, 3.84, 3.91, 16.05, repro,
2001-02-26,-2.42, -1.51, -15.39, 4.22, 4.47, 16.44, repro,
2001-02-27,-0.10, -2.15, -21.68, 4.15, 4.01, 17.42, repro,
2001-02-28,-2.72, 0.66, -12.83, 4.03, 3.89, 16.73, repro,
2001-03-01,-0.30, 1.73, -7.04, 4.31, 4.70, 16.31, repro,
2001-03-02,-1.61, -0.18, -17.59, 4.33, 4.65, 15.99, repro,
2001-03-03,-0.96, -2.78, -9.72, 4.38, 4.49, 16.03, repro,
2001-03-04,0.64, 2.58, -9.17, 3.85, 3.73, 15.05, repro,
2001-03-05,-2.68, -1.44, -21.36, 4.68, 5.31, 18.19, repro,
2001-03-06,-1.78, 0.75, -36.69, 3.89, 3.66, 14.81, repro,
2001-03-07,-3.26, 0.40, -1.06, 4.03, 4.27, 16.78, repro,
2001-03-08,-1.50, 1.70, -8.39, 3.89, 3.67, 14.58, repro,
2001-03-09,-3.00, 3.35, -8.37, 4.16, 3.91, 16.13, repro,
2001-03-10,1.21, 4.29, 10.28, 5.11, 4.86, 17.08, repro,
2001-03-11,1.56, 1.54, -4.83, 4.29, 4.19, 14.74, repro,
2001-03-12,1.87, -1.50, -9.48, 4.46, 4.35, 15.60, repro,
2001-03-13,-1.30, 0.69, -9.72, 3.91, 3.67, 14.44, repro,
2001-03-14,0.01, -0.70, -5.78, 3.89, 3.64, 14.17, repro,
2001-03-15,1.31, -1.00, -1.39, 3.99, 3.76, 14.82, repro,
2001-03-16,1.14, -2.02, -4.65, 4.17, 4.21, 16.55, repro,
2001-03-17,-1.80, 0.17, -7.22, 4.33, 4.32, 15.44, repro,
2001-03-18,-0.71, 0.53, -28.47, 3.89, 3.69, 14.48, repro,
2001-03-19,-0.24, 0.51, -12.27, 3.85, 3.64, 14.39, repro,
2001-03-20,2.20, -1.18, -27.27, 3.87, 3.69, 14.92, repro,
2001-03-21,-2.88, 1.49, -4.36, 3.93, 3.82, 15.40, repro,
2001-03-22,4.24, -10.55, -31.81, 8.42, 8.98, 33.86, repro,
2001-04-11,-3.27, 3.59, -13.44, 4.01, 3.53, 15.17, repro,
2001-04-12,-0.72, -0.81, -4.61, 4.25, 3.79, 16.41, repro,
2001-04-13,-1.39, 0.82, -13.14, 4.08, 3.78, 16.13, repro,
2001-04-14,-1.17, -0.94, -5.55, 4.13, 3.73, 16.31, repro,
2001-04-15,-4.15, 1.29, -19.57, 4.08, 3.55, 15.66, repro,
2001-04-16,-0.03, -2.68, -22.65, 4.40, 3.90, 16.54, repro,
2001-04-17,-0.66, -3.58, -4.84, 4.67, 3.65, 17.39, repro,
2001-04-18,-3.18, 0.53, -3.40, 4.59, 3.63, 17.52, repro,
2001-04-19,-2.56, -4.32, 8.51, 4.04, 3.34, 15.30, repro,
2001-04-20,-5.33, -1.82, -1.65, 4.08, 3.41, 15.73, repro,
2001-04-21,-6.47, -4.76, 17.88, 4.06, 3.21, 15.02, repro,
2001-04-22,-2.74, 4.27, -12.58, 4.55, 3.73, 17.04, repro,
2001-04-23,-0.79, 4.20, -12.83, 4.13, 3.22, 15.70, repro,
2001-04-24,-1.74, -1.35, 12.74, 4.11, 3.24, 15.55, repro,
2001-04-25,-0.52, -0.54, 11.81, 4.12, 3.41, 15.74, repro,
2001-04-26,-9.68, 4.45, -3.12, 4.19, 3.58, 16.58, repro,
2001-04-27,-4.83, 2.13, 0.11, 4.06, 3.32, 15.67, repro,
2001-04-28,-1.69, -1.02, 3.21, 4.07, 3.32, 15.50, repro,
2001-04-29,-1.19, -0.89, 9.03, 4.09, 3.31, 15.44, repro,
2001-04-30,0.36, -0.43, -6.08, 4.46, 3.81, 16.71, repro,
2001-05-01,-3.69, -2.86, -10.55, 4.22, 3.38, 15.73, repro,
2001-05-02,-3.71, 1.54, 11.34, 4.16, 3.36, 15.96, repro,
2001-05-03,-2.40, 1.06, -9.49, 4.08, 3.38, 15.95, repro,
2001-05-04,-0.12, 1.97, -5.58, 4.20, 3.37, 15.82, repro,
2001-05-05,-2.67, 1.84, -1.33, 3.97, 3.23, 14.83, repro,
2001-05-06,-3.11, 1.32, -2.28, 4.18, 3.39, 15.79, repro,
2001-05-07,-5.24, 0.01, -4.52, 4.14, 3.45, 16.19, repro,
2001-05-08,-4.24, 0.78, -0.85, 4.12, 3.42, 15.80, repro,
2001-05-09,-5.45, -0.01, 6.12, 4.23, 3.55, 16.27, repro,
2001-05-10,-1.59, -0.51, -13.70, 4.19, 3.37, 15.34, repro,
2001-05-11,-2.56, -1.38, 6.12, 4.24, 3.53, 15.80, repro,
2001-05-12,-5.94, -3.66, -13.89, 4.31, 3.51, 16.00, repro,
2001-05-13,-0.16, 1.92, -2.05, 4.27, 3.45, 15.98, repro,
2001-08-19,-2.29, -0.58, -16.95, 4.38, 3.51, 16.65, repro,
2001-08-20,-2.36, -2.47, -19.03, 4.61, 3.62, 17.68, repro,
2001-08-21,-1.50, -2.94, -19.09, 4.07, 3.28, 15.59, repro,
2001-08-22,-1.90, 0.20, -11.45, 4.28, 3.58, 17.37, repro,
2001-08-23,-0.76, -2.33, -8.08, 4.39, 3.65, 17.89, repro,
2001-08-24,-1.18, -0.67, -14.35, 4.36, 3.61, 17.30, repro,
2001-08-25,0.03, -1.80, -16.10, 4.09, 3.26, 15.06, repro,
2001-08-26,2.79, -2.22, -23.80, 4.32, 3.59, 17.13, repro,
2001-08-27,0.92, 0.09, -20.24, 4.19, 3.27, 15.24, repro,
2001-08-28,-2.90, -1.11, -9.05, 4.76, 3.37, 16.50, repro,
2001-08-29,-4.25, -0.88, -8.94, 4.28, 3.62, 16.72, repro,
2001-08-30,-1.29, -1.39, -23.18, 4.38, 3.64, 16.74, repro,
2001-08-31,-1.90, -2.53, -1.14, 4.43, 3.67, 16.89, repro,
2001-09-01,-0.03, -1.77, -8.21, 4.14, 3.32, 15.03, repro,
2001-09-02,-0.95, 0.19, -14.24, 4.32, 3.49, 16.11, repro,
2001-09-03,-2.02, 4.39, -4.71, 4.30, 3.58, 16.88, repro,
2001-09-04,0.20, -0.20, -4.08, 4.88, 4.48, 19.01, repro,
2001-09-06,-0.70, -4.07, -19.47, 4.19, 3.38, 15.32, repro,
2001-09-07,0.99, 0.88, -18.65, 4.15, 3.37, 15.35, repro,
2001-09-08,-0.79, 0.43, -15.64, 4.14, 3.37, 15.18, repro,
2001-09-09,-2.42, -0.64, -21.70, 4.07, 3.32, 15.09, repro,
2001-09-10,-3.42, -0.19, -15.19, 4.27, 3.43, 16.12, repro,
2001-09-11,-2.22, -3.07, -7.05, 4.63, 4.36, 18.76, repro,
2001-09-12,-4.24, -2.91, 5.43, 4.55, 4.29, 18.35, repro,
2001-09-13,-1.76, 0.90, -10.13, 4.11, 3.38, 16.10, repro,
2001-09-14,-3.11, -0.10, -17.17, 4.30, 3.36, 16.10, repro,
2001-09-15,-0.01, -0.45, -11.02, 4.09, 3.37, 15.71, repro,
2001-09-16,-0.87, -2.64, -30.87, 4.29, 3.68, 17.92, repro,
2001-09-17,-0.32, -1.60, -10.70, 4.27, 3.63, 17.74, repro,
2001-09-18,-1.75, -2.51, -10.06, 4.14, 3.51, 16.95, repro,
2001-09-19,-2.83, -2.52, -27.04, 4.26, 3.58, 17.61, repro,
2001-09-20,-3.09, -1.74, -23.87, 4.72, 4.00, 18.46, repro,
2001-09-21,-1.35, -4.02, -14.35, 4.53, 4.17, 19.66, repro,
2001-09-22,-1.92, -2.96, -25.41, 4.22, 3.66, 18.30, repro,
2001-09-23,-1.09, -0.99, -24.44, 4.31, 3.72, 18.69, repro,
2001-09-24,-2.56, -0.78, -18.83, 4.09, 3.54, 17.50, repro,
2001-09-25,-3.11, -4.80, -5.47, 4.11, 3.47, 17.26, repro,
2001-09-26,-1.04, -0.47, -12.16, 4.36, 3.97, 18.74, repro,
2001-09-27,-1.55, -1.79, -13.14, 4.29, 3.95, 19.00, repro,
2001-09-28,-0.08, -0.11, -20.85, 4.09, 3.36, 16.65, repro,
2001-09-29,-2.04, 0.05, -31.45, 4.26, 3.57, 18.61, repro,
2001-09-30,0.98, 1.15, -30.01, 4.20, 3.51, 17.74, repro,
2001-10-01,1.23, -1.39, -28.18, 4.25, 3.61, 18.33, repro,
2001-10-02,1.08, -1.46, -26.03, 4.31, 3.47, 17.12, repro,
2001-10-03,-2.95, 0.55, -9.90, 4.21, 3.48, 17.50, repro,
2001-10-04,-2.30, -3.00, -14.78, 4.21, 3.67, 17.94, repro,
2001-10-05,-2.04, -1.69, -13.60, 4.55, 3.75, 18.92, repro,
2001-10-06,-2.19, -2.75, -11.20, 4.30, 3.73, 18.83, repro,
2001-10-07,-3.05, -1.81, -11.62, 4.37, 3.86, 19.33, repro,
2001-10-08,-3.69, -2.93, -4.86, 4.22, 3.54, 17.82, repro,
2001-10-09,-2.71, -3.54, -13.60, 4.34, 3.79, 18.51, repro,
2001-10-10,-1.63, 1.28, -26.54, 4.24, 3.73, 17.70, repro,
2001-10-11,-2.18, -0.30, -2.03, 4.23, 3.80, 17.91, repro,
2001-10-12,-1.91, -1.10, -7.96, 4.62, 4.39, 19.85, repro,
2001-10-13,-5.95, -1.19, -5.37, 4.60, 4.36, 19.73, repro,
2001-10-14,-2.38, -0.78, -17.15, 4.34, 3.96, 18.40, repro,
2001-10-15,0.03, -1.46, -12.13, 4.20, 3.88, 17.40, repro,
2001-10-16,-0.37, -0.47, -32.23, 4.27, 3.83, 17.19, repro,
2001-10-17,-3.59, -1.02, -13.15, 4.40, 3.94, 17.65, repro,
2001-10-18,-4.26, -1.71, -6.85, 4.96, 4.08, 19.49, repro,
2001-10-19,-1.07, -2.37, -0.09, 4.12, 3.59, 16.62, repro,
2001-10-20,-0.99, -4.64, -2.84, 4.13, 3.59, 16.45, repro,
2001-10-21,-2.36, -2.34, -6.34, 4.09, 3.62, 16.37, repro,
2001-10-22,-2.15, -5.21, -5.10, 4.10, 3.73, 16.72, repro,
2001-10-23,0.06, -2.14, 2.10, 4.37, 3.76, 17.25, repro,
2001-10-24,-1.28, -1.63, -7.67, 4.18, 3.96, 17.55, repro,
2001-10-25,-2.95, -2.00, -11.55, 4.22, 3.94, 17.33, repro,
2001-10-26,-0.46, -1.90, -13.96, 4.11, 3.66, 16.14, repro,
2001-10-27,-4.18, -1.78, -7.41, 4.30, 4.02, 17.26, repro,
2001-10-28,-1.84, -1.03, -17.47, 4.09, 3.78, 16.27, repro,
2001-10-29,-2.48, -3.49, -1.35, 4.68, 4.09, 18.12, repro,
2001-10-30,-0.97, -2.28, -15.52, 4.18, 3.90, 16.88, repro,
2001-10-31,3.01, -3.42, -4.24, 4.10, 3.72, 16.07, repro,
2001-11-01,-2.12, -5.71, -2.17, 4.06, 3.71, 15.75, repro,
2001-11-02,-3.07, -2.93, -8.61, 3.98, 3.69, 15.69, repro,
2001-11-03,-1.16, -2.38, -9.00, 4.09, 3.70, 16.18, repro,
2001-11-04,-3.80, -3.86, -10.40, 3.97, 3.60, 15.51, repro,
2001-11-05,-3.41, -3.14, -8.42, 4.10, 3.61, 15.57, repro,
2001-11-06,0.12, -3.80, -10.14, 4.75, 4.16, 19.19, repro,
2001-11-07,-4.74, -3.01, -8.35, 4.26, 3.92, 16.65, repro,
2001-11-08,-5.85, -3.80, -11.14, 4.46, 4.10, 19.31, repro,
2001-11-09,-3.66, -1.90, -0.20, 4.33, 3.98, 19.21, repro,
2001-11-10,-2.24, -2.29, -12.33, 4.13, 3.75, 16.01, repro,
2001-11-11,-2.22, 2.99, -25.11, 4.28, 3.79, 16.87, repro,
2001-11-12,-3.53, -4.22, -6.79, 4.11, 3.69, 16.12, repro,
2001-11-13,-0.47, -5.21, -1.70, 4.33, 3.97, 17.34, repro,
2001-11-14,-4.61, -1.56, -2.89, 4.05, 3.67, 15.85, repro,
2001-11-15,-3.78, -3.86, -13.86, 3.96, 3.61, 15.59, repro,
2001-11-16,-5.07, -1.12, -12.59, 4.04, 3.64, 15.67, repro,
2001-11-17,-0.35, -1.62, -6.00, 4.05, 3.81, 16.24, repro,
2001-11-18,-6.71, -3.11, -2.91, 4.14, 3.95, 17.01, repro,
2001-11-19,-4.44, -3.35, 1.15, 4.15, 3.85, 16.41, repro,
2001-11-20,-2.14, -4.97, 2.32, 4.04, 3.70, 16.19, repro,
2001-11-21,-3.56, -5.13, -6.08, 4.10, 3.71, 16.30, repro,
2001-11-22,-5.13, -4.06, 6.86, 4.08, 3.77, 16.35, repro,
2001-11-23,-2.41, -4.05, 2.58, 4.47, 4.28, 19.55, repro,
2001-11-24,-5.50, -5.77, 10.47, 4.65, 4.24, 19.66, repro,
2001-11-25,-7.34, -2.65, -16.88, 4.17, 4.11, 18.02, repro,
2001-11-26,-2.72, -3.37, -1.03, 4.27, 3.88, 16.58, repro,
2001-11-27,-6.21, -3.64, -19.90, 3.93, 3.74, 16.93, repro,
2001-11-28,-1.99, -0.12, -15.01, 3.99, 3.78, 17.30, repro,
2001-11-29,-2.48, -0.42, -12.53, 4.04, 3.59, 16.80, repro,
2001-11-30,-3.21, -4.49, -7.54, 3.84, 3.64, 16.70, repro,
2001-12-01,-3.49, -5.62, -0.32, 3.73, 3.55, 16.21, repro,
2001-12-02,-3.82, -0.90, -3.98, 3.78, 3.72, 16.71, repro,
2001-12-03,-0.41, -1.35, 2.65, 3.83, 3.56, 16.21, repro,
2001-12-04,-2.91, -3.35, -21.83, 3.92, 3.61, 16.62, repro,
2001-12-05,-2.16, -8.05, 24.85, 10.07, 7.86, 41.04, repro,
2002-01-30,-3.50, -2.29, -4.54, 3.79, 3.65, 15.26, repro,
2002-01-31,-2.85, -3.09, -3.82, 3.77, 3.48, 15.74, repro,
2002-02-01,-2.63, -0.20, -6.42, 3.82, 3.93, 15.96, repro,
2002-02-02,-1.42, -1.82, 3.27, 3.75, 3.74, 15.47, repro,
2002-02-03,-2.05, -1.12, -8.95, 3.63, 3.36, 15.16, repro,
2002-02-04,-1.51, -1.24, -1.83, 3.96, 3.56, 16.32, repro,
2002-02-05,-0.56, -1.04, 1.39, 3.65, 3.43, 15.24, repro,
2002-02-06,0.65, -1.93, 5.48, 3.58, 3.29, 15.04, repro,
2002-02-07,0.26, -0.45, 9.48, 6.54, 6.05, 26.89, repro,
2002-02-15,-0.22, -2.05, 4.28, 3.75, 3.75, 15.32, repro,
2002-02-16,-1.11, -3.54, 7.57, 3.55, 3.28, 14.55, repro,
2002-02-17,-1.32, -3.46, 0.52, 3.69, 3.67, 14.94, repro,
2002-02-18,-1.77, -2.68, -3.46, 3.85, 3.90, 15.75, repro,
2002-02-19,-2.33, -0.80, -2.24, 3.56, 3.42, 14.62, repro,
2002-02-20,-1.87, -0.97, 7.02, 3.64, 3.38, 14.61, repro,
2002-02-21,-3.88, -0.86, 12.47, 3.76, 3.65, 14.77, repro,
2002-02-22,-2.60, -1.83, -4.72, 3.98, 3.72, 15.83, repro,
2002-02-23,-0.19, -2.84, -10.00, 3.65, 3.27, 14.12, repro,
2002-02-24,0.95, -0.04, 5.03, 3.65, 3.31, 14.11, repro,
2002-02-25,-1.30, -0.87, 9.82, 3.68, 3.40, 14.48, repro,
2002-02-26,-0.52, 0.66, 0.69, 4.61, 4.41, 15.73, repro,
2002-02-27,0.85, 1.09, 11.65, 4.44, 4.03, 15.27, repro,
2002-02-28,-2.76, -1.47, 5.16, 3.94, 3.41, 15.18, repro,
2002-03-01,-2.44, 3.57, 9.59, 3.84, 3.57, 14.50, repro,
2002-03-02,-0.57, -1.56, 11.25, 3.78, 3.53, 14.46, repro,
2002-03-03,-0.31, 1.22, 2.79, 4.34, 4.59, 15.59, repro,
2002-03-04,-0.32, 0.32, 6.00, 3.64, 3.34, 14.23, repro,
2002-03-05,-1.50, 0.20, -0.42, 3.80, 3.54, 14.58, repro,
2002-03-06,-0.44, 0.31, -2.01, 4.10, 4.06, 15.36, repro,
2002-03-07,1.01, -3.83, -15.33, 3.82, 3.52, 14.66, repro,
2002-03-08,0.95, -3.73, -0.12, 3.90, 3.75, 16.00, repro,
2002-03-09,-0.96, -2.78, 1.22, 3.84, 3.77, 16.06, repro,
2002-03-10,0.02, -1.48, -4.49, 3.61, 3.21, 14.66, repro,
2002-03-11,-1.06, -0.42, 2.85, 3.86, 3.94, 16.03, repro,
2002-03-12,-0.89, -0.41, 12.81, 3.66, 3.38, 14.85, repro,
2002-03-13,-3.33, -0.24, -5.69, 3.75, 3.54, 15.69, repro,
2002-03-14,-2.01, 2.93, -2.16, 3.69, 3.35, 15.36, repro,
2002-03-15,-2.61, -0.48, -5.42, 3.72, 3.34, 14.88, repro,
2002-03-16,0.59, -1.13, -3.02, 3.58, 3.17, 14.38, repro,
2002-03-17,1.06, -0.35, 2.89, 3.84, 3.72, 15.97, repro,
2002-03-18,-2.80, -5.85, 19.62, 4.09, 4.02, 16.43, repro,
2002-03-19,-0.13, 0.55, -15.64, 3.81, 3.49, 15.87, repro,
2002-03-20,-0.49, -0.09, -9.58, 3.88, 3.62, 16.30, repro,
2002-03-21,-1.59, -1.65, -5.10, 3.91, 3.61, 16.16, repro,
2002-03-22,0.43, -0.02, -4.62, 3.84, 3.38, 15.09, repro,
2002-03-23,0.46, 0.87, 0.53, 3.79, 3.36, 15.20, repro,
2002-03-24,-0.00, 1.18, -10.50, 3.94, 3.27, 15.36, repro,
2002-03-25,1.99, 1.09, -11.10, 3.93, 3.44, 16.04, repro,
2002-03-26,-1.22, -0.24, -13.13, 4.15, 3.62, 17.34, repro,
2002-03-27,0.79, 1.14, -0.85, 4.29, 4.01, 17.13, repro,
2002-03-28,1.71, 2.01, 0.99, 4.28, 3.94, 17.08, repro,
2002-03-29,-1.63, -0.82, -18.51, 4.16, 3.59, 16.64, repro,
2002-03-30,-3.90, -2.29, -8.18, 4.29, 3.54, 17.19, repro,
2002-03-31,-0.48, -4.49, -8.64, 5.73, 5.58, 27.65, repro,
2002-06-26,1.39, -1.79, -0.09, 6.30, 6.05, 25.62, repro,
2002-06-27,4.45, 1.93, 3.75, 5.97, 5.23, 23.24, repro,
2002-06-28,0.50, -1.86, -2.46, 6.19, 5.38, 24.41, repro,
2002-06-29,1.90, -2.33, 2.33, 6.35, 5.44, 24.82, repro,
2002-06-30,4.36, 1.79, 1.73, 6.22, 5.44, 24.92, repro,
2002-07-01,4.43, -2.70, 18.39, 6.45, 5.57, 25.86, repro,
2002-07-02,-0.85, 0.70, -14.93, 6.54, 5.46, 25.27, repro,
2002-07-03,-0.36, 3.86, 9.60, 6.64, 5.82, 25.59, repro,
2002-07-04,1.12, -1.90, 3.69, 6.66, 5.94, 25.37, repro,
2002-07-05,-0.72, 0.81, 2.24, 6.41, 5.27, 24.36, repro,
2002-07-06,-1.49, -4.82, -12.55, 5.97, 4.68, 23.15, repro,
2002-07-07,-0.90, 1.84, -9.51, 5.95, 4.61, 22.34, repro,
2002-07-08,-0.93, -0.85, -0.77, 6.42, 5.01, 25.04, repro,
2002-07-09,-2.59, -0.19, -9.26, 5.94, 4.59, 22.33, repro,
2002-07-10,-0.94, 0.24, 1.06, 6.22, 4.68, 22.93, repro,
2002-07-11,-1.76, -2.09, -12.54, 5.97, 4.51, 21.96, repro,
2002-07-12,-1.43, 1.76, -16.68, 6.03, 4.92, 23.50, repro,
2002-07-13,-0.50, -3.03, 0.08, 6.76, 5.41, 27.80, repro,
2002-07-14,1.68, -1.34, -12.03, 5.87, 4.63, 22.45, repro,
2002-07-15,-1.23, -3.53, -11.99, 6.38, 5.07, 24.64, repro,
2002-07-16,-2.48, -2.75, -11.44, 6.07, 4.52, 22.31, repro,
2002-07-17,-1.98, -0.55, -1.57, 5.94, 4.80, 22.57, repro,
2002-07-18,-0.19, -6.29, -34.58, 6.37, 5.24, 25.64, repro,
2002-07-19,-2.97, -1.87, -21.48, 5.90, 4.61, 22.09, repro,
2002-07-20,1.24, -0.38, -17.35, 5.96, 4.73, 23.05, repro,
2002-07-21,1.13, -6.00, 10.53, 5.93, 4.67, 23.38, repro,
2002-07-22,3.17, -2.42, -23.94, 6.01, 4.78, 23.29, repro,
2002-07-23,0.31, -1.27, -34.08, 6.01, 4.86, 22.81, repro,
2002-07-24,0.02, -2.39, -16.47, 5.88, 4.79, 22.16, repro,
2002-07-25,3.93, 0.85, -27.32, 5.97, 4.91, 23.83, repro,
2002-07-26,-0.91, -3.12, -18.98, 5.87, 4.89, 23.97, repro,
2002-07-27,3.41, -0.58, -19.06, 5.94, 4.90, 23.41, repro,
2002-07-28,-0.18, -1.45, -30.35, 5.86, 4.58, 22.26, repro,
2002-07-29,0.01, -0.63, -9.43, 5.87, 4.60, 22.06, repro,
2002-07-30,2.93, 0.93, -20.59, 6.08, 4.79, 23.73, repro,
2002-07-31,-1.91, 0.42, -17.16, 6.06, 4.85, 24.04, repro,
2002-08-01,1.67, -0.16, -13.14, 5.81, 4.61, 21.94, repro,
2002-08-02,-3.49, -6.13, -14.15, 6.00, 4.65, 22.91, repro,
2002-08-03,2.50, 1.56, -13.04, 6.16, 4.89, 23.31, repro,
2002-08-04,4.49, -2.77, -40.02, 6.43, 4.92, 22.99, repro,
2002-08-05,0.99, 1.99, -17.05, 6.43, 4.68, 22.22, repro,
2002-08-06,-2.57, -4.28, -28.45, 5.91, 4.87, 22.43, repro,
2002-08-07,-2.30, -3.11, -39.60, 6.79, 4.92, 24.84, repro,
2002-08-08,5.62, -0.74, -26.65, 6.40, 4.94, 23.51, repro,
2002-08-09,-0.55, -4.84, -21.82, 6.49, 5.07, 25.08, repro,
2002-08-10,-1.71, -3.31, -7.60, 6.17, 4.55, 21.36, repro,
2002-08-11,0.06, -2.12, -31.08, 6.06, 4.58, 21.29, repro,
2002-08-12,-3.25, -5.45, -10.49, 6.15, 4.53, 21.44, repro,
2002-08-13,4.21, -2.25, -14.49, 6.15, 4.70, 21.88, repro,
2002-08-14,-1.02, -4.10, -28.88, 6.23, 4.85, 22.45, repro,
2002-08-15,-0.08, -0.18, -16.16, 6.11, 4.63, 21.31, repro,
2002-08-16,-3.79, -1.30, -22.17, 5.99, 4.66, 21.21, repro,
2002-08-17,-1.93, -0.17, -20.01, 6.24, 4.72, 22.02, repro,
2002-08-18,2.98, -0.62, -4.54, 6.38, 4.97, 22.55, repro,
2002-08-19,-2.65, -0.72, -6.27, 6.17, 4.75, 21.86, repro,
2002-08-20,3.63, -0.01, -21.15, 6.02, 4.72, 21.30, repro,
2002-08-21,0.19, -0.43, -11.96, 6.16, 4.76, 21.95, repro,
2002-08-22,-3.70, 0.35, -31.13, 6.20, 4.83, 21.90, repro,
2002-08-23,-1.04, 1.36, -20.26, 6.01, 4.76, 21.52, repro,
2002-08-24,-3.28, 0.47, -42.64, 6.38, 5.13, 23.05, repro,
2002-08-25,2.19, 2.06, -19.28, 6.13, 4.98, 22.20, repro,
2002-08-26,0.02, -0.94, -22.01, 6.20, 5.01, 22.66, repro,
2002-08-27,1.09, -0.40, -19.91, 6.13, 4.97, 22.13, repro,
2002-08-28,-0.24, 2.03, 0.96, 5.93, 4.72, 21.49, repro,
2002-08-29,-1.51, -2.89, -21.12, 5.95, 4.70, 21.64, repro,
2002-08-30,0.72, 0.58, -3.87, 5.99, 5.18, 22.69, repro,
2002-08-31,-4.19, -2.29, -17.70, 5.87, 4.71, 21.66, repro,
2002-09-01,0.51, 1.54, -38.10, 6.05, 5.43, 24.13, repro,
2002-09-02,-0.64, -1.35, -8.38, 5.98, 5.08, 23.26, repro,
2002-09-03,-3.03, 4.26, -4.34, 5.99, 4.90, 22.83, repro,
2002-09-04,-1.72, -0.43, -3.53, 5.84, 5.06, 22.94, repro,
2002-09-05,-1.76, -1.00, -30.89, 5.86, 4.84, 22.42, repro,
2002-09-06,-1.94, -3.86, -18.42, 6.01, 5.00, 23.31, repro,
2002-09-07,1.15, -3.02, -20.00, 5.89, 4.94, 23.02, repro,
2002-09-08,-3.74, -0.27, -16.74, 6.05, 5.19, 24.25, repro,
2002-09-09,-0.10, 1.49, -0.82, 6.10, 5.60, 25.30, repro,
2002-09-10,0.34, -2.39, -16.12, 6.22, 4.91, 24.13, repro,
2002-09-24,-0.12, -2.78, 7.11, 6.10, 5.30, 24.66, repro,
2003-01-01,-1.25, -1.53, -30.59, 5.71, 6.30, 24.07, repro,
2003-01-02,-3.95, -2.83, -19.33, 5.44, 6.27, 23.90, repro,
2003-01-03,-5.54, -0.77, 7.75, 6.01, 7.03, 27.11, repro,
2003-01-04,-3.36, -1.83, -16.82, 5.56, 5.81, 23.44, repro,
2003-01-05,-5.40, 10.86, -14.19, 6.26, 7.54, 27.11, repro,
2003-01-06,-5.45, -6.07, -14.09, 6.69, 6.46, 29.02, repro,
2003-01-07,-5.35, -0.86, -11.34, 5.64, 5.64, 22.30, repro,
2003-01-08,-1.19, 2.14, 2.71, 5.47, 5.10, 21.71, repro,
2003-01-09,-5.73, -4.41, -9.75, 5.75, 6.20, 25.76, repro,
2003-01-10,-5.26, -0.36, 2.18, 5.61, 5.62, 22.02, repro,
2003-01-11,-4.24, -1.44, -11.58, 5.61, 5.49, 22.34, repro,
2003-01-12,-4.59, -4.04, -8.82, 5.65, 5.06, 21.48, repro,
2003-01-13,-3.37, 1.01, 5.41, 5.45, 5.12, 21.72, repro,
2003-01-14,-2.91, -0.95, -14.98, 5.42, 5.80, 23.48, repro,
2003-01-15,-1.98, -1.32, 6.59, 5.74, 5.67, 22.98, repro,
2003-01-16,-4.46, -1.25, -8.21, 5.70, 5.76, 22.70, repro,
2003-01-17,-2.43, 0.10, -19.91, 5.23, 4.90, 20.89, repro,
2003-01-18,-2.27, -0.13, -2.73, 5.48, 5.35, 22.21, repro,
2003-01-19,0.07, -1.07, -0.81, 5.38, 5.15, 21.27, repro,
2003-01-20,-6.90, 0.87, 23.70, 5.72, 5.37, 23.47, repro,
2003-01-21,-3.79, -1.27, 11.79, 5.55, 5.92, 22.21, repro,
2003-01-22,0.34, -1.28, -1.05, 5.56, 5.43, 21.55, repro,
2003-01-23,-2.33, -5.32, 6.16, 5.52, 5.01, 21.37, repro,
2003-01-24,1.74, -0.63, 4.93, 5.51, 5.03, 21.41, repro,
2003-01-25,-6.33, 0.91, -2.00, 5.80, 5.75, 22.60, repro,
2003-01-26,-1.38, 0.49, 2.13, 5.63, 5.63, 21.83, repro,
2003-01-27,-1.47, -1.74, -3.95, 5.87, 5.44, 21.76, repro,
2003-01-28,-1.95, -1.86, 1.16, 5.85, 5.59, 22.10, repro,
2003-01-29,-0.98, 0.86, -1.79, 5.37, 4.96, 20.91, repro,